Content
SEND FEEDBACK

Daily
Averages
Monthly
Summary
United States of America

LUCERNE, MISSOURI


Home > North America > United States > Missouri
Elevation: 902 feet     Latitude: 40 27N     Longitude: 093 18W

WEATHER
 
SELECT A DAY
Number of Records: 158,556;   Date Range: 10/18/07 - 12/20/14
 
SHARE

PRINT THIS DATA

[ ← Previous Day ]
WEATHER ALMANAC - JANUARY 6, 2013
[ Next Day → ]
[ °C ]   °F
Weather ElementAverageHighLow
Temperature25.9 °F35.6 °F (2:35 pm)15.8 °F (7:15 am)
Dewpoint16 °F23 °F (12:35 am)10.4 °F (10:15 am)
Humidity68.3 %93 % (7:15 am)44 % (12:35 pm)
Barometer30.25 in30.31 in (10:35 am)30.08 in (12:35 am)
Wind Speed10.8 mph20.7 mph (4:15 am)
Wind Gust27.6 mph (4:15 am)
Weather ElementAverage
Visibility10 mi
Wind DirectionWSW (256.1 °)

Weather ElementTotal
Precipitation---
Heating Degree Days39.3 (Base 65)
Averaged from 67 records on January 6, 2013
WEATHER CONDITIONS BREAKOUT
WIND DIRECTION BREAKOUT
WEATHER BY HOUR - JANUARY 6, 2013
[ °C ]   °F
Local TimeTemperatureDewpointHumidityBarometerVisibilityWind DirectionWind SpeedGust SpeedPrecipitationEventsConditions
12:35 AM28.4 °F23.0 °F80 %30.08 in10.0 miNW (310°)18.4 mph23.0 mphOvercast
12:55 AM26.6 °F21.2 °F80 %30.09 in10.0 miWNW (300°)17.3 mph23.0 mphOvercast
1:35 AM26.6 °F21.2 °F80 %30.09 in10.0 miNW (310°)15.0 mphOvercast
1:55 AM26.6 °F23.0 °F86 %30.10 in10.0 miWNW (300°)13.8 mphOvercast
2:15 AM26.6 °F21.2 °F80 %30.10 in10.0 miWNW (290°)18.4 mph24.2 mphOvercast
2:35 AM24.8 °F19.4 °F80 %30.11 in10.0 miWNW (300°)18.4 mphOvercast
2:55 AM24.8 °F17.6 °F74 %30.13 in10.0 miWNW (300°)13.8 mphOvercast
3:15 AM24.8 °F17.6 °F74 %30.14 in10.0 miWNW (290°)19.6 mph24.2 mphOvercast
3:35 AM24.8 °F17.6 °F74 %30.14 in10.0 miWNW (300°)16.1 mphOvercast
3:55 AM23.0 °F17.6 °F80 %30.15 in10.0 miWNW (300°)19.6 mphOvercast
4:15 AM23.0 °F17.6 °F80 %30.16 in10.0 miWNW (290°)20.7 mph27.6 mphOvercast
4:35 AM23.0 °F17.6 °F80 %30.17 in10.0 miWNW (290°)20.7 mph25.3 mphOvercast
4:55 AM19.4 °F15.8 °F86 %30.18 in10.0 miWest (280°)13.8 mphOvercast
5:15 AM19.4 °F15.8 °F86 %30.18 in10.0 miWest (280°)12.7 mphOvercast
5:35 AM19.4 °F15.8 °F86 %30.19 in10.0 miWNW (290°)15.0 mphOvercast
5:55 AM17.6 °F14.0 °F86 %30.20 in10.0 miWNW (300°)15.0 mphMostly Cloudy
6:15 AM17.6 °F14.0 °F86 %30.21 in10.0 miWest (280°)11.5 mphPartly Cloudy
6:35 AM17.6 °F14.0 °F86 %30.22 in10.0 miWest (270°)9.2 mphClear
6:55 AM17.6 °F14.0 °F86 %30.23 in10.0 miWest (270°)11.5 mphClear
7:15 AM15.8 °F14.0 °F93 %30.24 in10.0 miWest (270°)12.7 mphClear
7:35 AM15.8 °F14.0 °F93 %30.25 in10.0 miWest (270°)9.2 mphClear
7:55 AM15.8 °F14.0 °F93 %30.25 in10.0 miWest (270°)10.4 mphClear
8:15 AM17.6 °F14.0 °F86 %30.26 in10.0 miWest (280°)12.7 mphClear
8:35 AM17.6 °F14.0 °F86 %30.27 in10.0 miWest (280°)13.8 mphClear
8:55 AM19.4 °F14.0 °F80 %30.27 in10.0 miWest (280°)13.8 mph18.4 mphClear
9:15 AM19.4 °F14.0 °F80 %30.27 in10.0 miWest (270°)12.7 mphClear
9:35 AM21.2 °F12.2 °F68 %30.28 in10.0 miWest (280°)12.7 mphClear
9:55 AM23.0 °F12.2 °F63 %30.30 in10.0 miWNW (300°)13.8 mphClear
10:15 AM23.0 °F10.4 °F59 %30.30 in10.0 miWNW (290°)12.7 mphClear
10:35 AM24.8 °F10.4 °F54 %30.31 in10.0 miWNW (300°)12.7 mph17.3 mphClear
10:55 AM26.6 °F10.4 °F51 %30.31 in10.0 miNW (310°)12.7 mphClear
11:15 AM26.6 °F10.4 °F51 %30.31 in10.0 miWest (280°)11.5 mphClear
11:35 AM28.4 °F10.4 °F47 %30.30 in10.0 miWest (280°)10.4 mphClear
11:55 AM28.4 °F10.4 °F47 %30.29 in10.0 miWest (270°)11.5 mphClear
12:15 PM30.2 °F12.2 °F47 %30.29 in10.0 miWest (270°)11.5 mphClear
12:35 PM32.0 °F12.2 °F44 %30.28 in10.0 miWest (270°)11.5 mphClear
12:55 PM32.0 °F14.0 °F48 %30.28 in10.0 miWest (280°)10.4 mphClear
1:15 PM32.0 °F14.0 °F48 %30.27 in10.0 miWNW (300°)10.4 mphClear
1:35 PM32.0 °F14.0 °F48 %30.27 in10.0 miNW (310°)8.1 mphClear
1:55 PM33.8 °F14.0 °F44 %30.28 in10.0 miWNW (290°)5.8 mphClear
2:15 PM33.8 °F14.0 °F44 %30.28 in10.0 miWNW (290°)9.2 mphClear
2:35 PM35.6 °F15.8 °F44 %30.28 in10.0 miWest (280°)9.2 mphClear
2:55 PM35.6 °F15.8 °F44 %30.28 in10.0 miWest (260°)6.9 mphClear
3:15 PM35.6 °F15.8 °F44 %30.29 in10.0 miWest (260°)8.1 mphClear
3:35 PM35.6 °F15.8 °F44 %30.29 in10.0 miWest (270°)6.9 mphClear
3:55 PM35.6 °F15.8 °F44 %30.29 in10.0 miWest (260°)8.1 mphClear
4:15 PM35.6 °F15.8 °F44 %30.29 in10.0 miWest (260°)5.8 mphClear
4:35 PM33.8 °F17.6 °F52 %30.29 in10.0 miWSW (250°)4.6 mphClear
4:55 PM32.0 °F17.6 °F55 %30.30 inWSW (250°)4.6 mphClear
5:15 PM30.2 °F15.8 °F55 %30.29 inSW (220°)3.5 mphClear
5:35 PM32.0 °F15.8 °F51 %30.30 inSSW (200°)3.5 mphClear
5:55 PM30.2 °F15.8 °F55 %30.30 inSSW (210°)3.5 mphClear
6:15 PM30.2 °F15.8 °F55 %30.30 inSSW (200°)4.6 mphClear
6:35 PM28.4 °F15.8 °F59 %30.30 inSouth (180°)5.8 mphClear
6:55 PM26.6 °F17.6 °F69 %30.31 inSouth (190°)6.9 mphClear
7:15 PM24.8 °F17.6 °F74 %30.31 inSouth (190°)8.1 mphClear
7:35 PM26.6 °F19.4 °F74 %30.30 inSouth (180°)8.1 mphClear
7:55 PM26.6 °F19.4 °F74 %30.30 inSouth (180°)8.1 mphClear
8:15 PM26.6 °F19.4 °F74 %30.30 inSouth (180°)8.1 mphClear
8:35 PM24.8 °F19.4 °F80 %30.30 inSouth (180°)6.9 mphClear
8:55 PM24.8 °F19.4 °F80 %30.29 inSouth (170°)6.9 mphClear
9:15 PM24.8 °F19.4 °F80 %30.29 inSouth (170°)6.9 mphClear
9:35 PM24.8 °F19.4 °F80 %30.29 inSouth (170°)6.9 mphClear
9:55 PM24.8 °F17.6 °F74 %30.29 inSouth (170°)6.9 mphClear
10:15 PM23.0 °F17.6 °F80 %30.28 inSSE (160°)8.1 mphClear
10:55 PM23.0 °F19.4 °F86 %30.26 inSouth (170°)8.1 mph
11:15 PM23.0 °F17.6 °F80 %30.26 inSSE (160°)8.1 mphClear
Hourly data recorded from KTVK, located miles away from Lucerne, Missouri







STORIES FROM OUR PARTNERS